| time (UTC) | temp F | wind direction | speed knots | gust knots | rain 1hr in | rain 24hr in | rain mn in | humidity % | barometer mb |
| 20260502234411 | 58 | 86 | 3.5 | 5.2 | 0.00 | 0.67 | 0.00 | 96 | 1013.2 |
| 20260502233910 | 58 | 67 | 2.6 | 5.2 | 0.00 | 0.67 | 0.00 | 96 | 1013.4 |
| 20260502233408 | 58 | 66 | 2.6 | 6.1 | 0.00 | 0.67 | 0.00 | 96 | 1013.4 |
| 20260502232935 | 58 | 63 | 2.6 | 7.8 | 0.00 | 0.67 | 0.00 | 96 | 1013.5 |
| 20260502231911 | 58 | 68 | 1.7 | 5.2 | 0.00 | 0.67 | 0.00 | 96 | 1013.8 |
| 20260502231409 | 58 | 123 | 0.9 | 4.3 | 0.00 | 0.67 | 0.00 | 96 | 1013.9 |
| 20260502230908 | 58 | 101 | 1.7 | 6.1 | 0.00 | 0.67 | 0.00 | 96 | 1013.8 |
| 20260502230419 | 58 | 87 | 4.3 | 7.8 | 0.00 | 0.67 | 0.00 | 95 | 1013.7 |
| 20260502225908 | 58 | 41 | 4.3 | 7.8 | 0.00 | 0.67 | 0.00 | 95 | 1013.7 |
| 20260502225409 | 58 | 58 | 3.5 | 7.0 | 0.00 | 0.67 | 0.00 | 95 | 1013.8 |
| 20260502224910 | 58 | 142 | 3.5 | 7.0 | 0.00 | 0.67 | 0.00 | 95 | 1014.0 |
| 20260502224409 | 58 | 80 | 3.5 | 7.0 | 0.00 | 0.67 | 0.00 | 95 | 1013.8 |
| 20260502223937 | 58 | 66 | 3.5 | 7.0 | 0.00 | 0.67 | 0.00 | 95 | 1014.0 |
| 20260502222909 | 58 | 59 | 2.6 | 6.1 | 0.01 | 0.67 | 0.00 | 95 | 1014.0 |
| 20260502222436 | 58 | 79 | 3.5 | 6.1 | 0.03 | 0.67 | 0.00 | 94 | 1014.0 |
| 20260502221407 | 58 | 54 | 2.6 | 5.2 | 0.07 | 0.67 | 0.00 | 94 | 1014.0 |
| 20260502220908 | 58 | 57 | 2.6 | 5.2 | 0.09 | 0.67 | 0.00 | 94 | 1013.9 |
| 20260502220403 | 58 | 51 | 2.6 | 5.2 | 0.10 | 0.67 | 0.00 | 94 | 1014.0 |
| 20260502215904 | 58 | 71 | 3.5 | 5.2 | 0.14 | 0.67 | 0.67 | 94 | 1013.9 |
| 20260502215406 | 58 | 56 | 3.5 | 5.2 | 0.19 | 0.67 | 0.67 | 94 | 1013.9 |
| 20260502214951 | 58 | 62 | 3.5 | 7.0 | 0.27 | 0.67 | 0.67 | 93 | 1014.0 |
| 20260502213903 | 58 | 33 | 2.6 | 4.3 | 0.66 | 0.67 | 0.67 | 93 | 1014.1 |
| 20260502213517 | 58 | 4 | 3.5 | 6.1 | 0.66 | 0.67 | 0.66 | 92 | 1014.2 |
| 20260502211931 | 59 | 19 | 2.6 | 4.3 | 0.61 | 0.61 | 0.61 | 91 | 1014.8 |
| 20260502210901 | 59 | 99 | 1.7 | 5.2 | 0.57 | 0.58 | 0.58 | 90 | 1015.5 |
| 20260502210444 | 60 | 164 | 3.5 | 6.1 | 0.56 | 0.57 | 0.56 | 89 | 1015.8 |
| 20260502205403 | 60 | 183 | 4.3 | 20.0 | 0.47 | 0.48 | 0.47 | 87 | 1015.9 |
| 20260502204930 | 61 | 222 | 9.6 | 24.3 | 0.39 | 0.39 | 0.38 | 85 | 1016.0 |
| 20260502203857 | 64 | 243 | 8.7 | 22.6 | 0.00 | 0.01 | 0.01 | 73 | 1015.6 |
| 20260502203359 | 64 | 235 | 4.3 | 10.4 | 0.00 | 0.01 | 0.01 | 69 | 1015.1 |
| 20260502202857 | 63 | 235 | 3.5 | 8.7 | 0.00 | 0.01 | 0.01 | 69 | 1014.4 |
| 20260502202442 | 63 | 320 | 3.5 | 8.7 | 0.00 | 0.01 | 0.01 | 68 | 1014.2 |
| 20260502201359 | 63 | 1 | 4.3 | 10.4 | 0.00 | 0.01 | 0.01 | 68 | 1014.3 |
| 20260502200858 | 63 | 357 | 2.6 | 7.0 | 0.00 | 0.01 | 0.01 | 68 | 1014.4 |
| 20260502200404 | 63 | 356 | 2.6 | 6.1 | 0.00 | 0.01 | 0.01 | 68 | 1014.3 |
| 20260502195911 | 63 | 351 | 2.6 | 6.1 | 0.00 | 0.01 | 0.01 | 68 | 1014.5 |
| 20260502195400 | 63 | 29 | 3.5 | 6.1 | 0.00 | 0.01 | 0.01 | 68 | 1014.5 |
| 20260502194900 | 63 | 9 | 3.5 | 7.0 | 0.00 | 0.01 | 0.01 | 68 | 1014.5 |
| 20260502194402 | 63 | 13 | 4.3 | 7.8 | 0.00 | 0.01 | 0.01 | 68 | 1014.6 |
| 20260502193856 | 63 | 1 | 4.3 | 8.7 | 0.00 | 0.01 | 0.01 | 67 | 1014.6 |
| 20260502193357 | 63 | 48 | 4.3 | 8.7 | 0.00 | 0.01 | 0.01 | 68 | 1014.6 |
| 20260502192858 | 64 | 23 | 4.3 | 8.7 | 0.00 | 0.01 | 0.01 | 68 | 1014.7 |
| 20260502192356 | 64 | 7 | 3.5 | 7.0 | 0.00 | 0.01 | 0.01 | 68 | 1014.8 |
| 20260502191854 | 64 | 335 | 3.5 | 7.0 | 0.00 | 0.01 | 0.01 | 68 | 1014.7 |
| 20260502191355 | 64 | 335 | 3.5 | 7.8 | 0.00 | 0.01 | 0.01 | 67 | 1014.7 |
| 20260502190851 | 64 | 345 | 4.3 | 7.8 | 0.00 | 0.01 | 0.01 | 67 | 1014.8 |
| 20260502190352 | 64 | 330 | 4.3 | 7.8 | 0.00 | 0.01 | 0.01 | 67 | 1014.8 |
| 20260502185933 | 64 | 346 | 5.2 | 8.7 | 0.00 | 0.01 | 0.01 | 67 | 1014.8 |
| 20260502184850 | 65 | 351 | 5.2 | 10.4 | 0.00 | 0.01 | 0.01 | 67 | 1014.8 |
| 20260502184350 | 65 | 351 | 5.2 | 9.6 | 0.00 | 0.01 | 0.01 | 67 | 1015.0 |
| 20260502183925 | 65 | 347 | 4.3 | 8.7 | 0.00 | 0.01 | 0.01 | 67 | 1014.9 |
| 20260502182349 | 66 | 358 | 4.3 | 11.3 | 0.00 | 0.01 | 0.01 | 67 | 1014.7 |
| 20260502181850 | 66 | 7 | 4.3 | 8.7 | 0.00 | 0.01 | 0.01 | 68 | 1014.8 |
| 20260502181354 | 67 | 15 | 4.3 | 8.7 | 0.00 | 0.01 | 0.01 | 68 | 1014.9 |
| 20260502180848 | 67 | 335 | 5.2 | 8.7 | 0.00 | 0.01 | 0.01 | 67 | 1014.9 |
| 20260502180348 | 68 | 21 | 4.3 | 8.7 | 0.00 | 0.01 | 0.01 | 66 | 1014.9 |
| 20260502170351 | 71 | 335 | 3.5 | 7.0 | 0.00 | 0.01 | 0.01 | 59 | 1015.0 |
| 20260502164346 | 71 | 320 | 3.5 | 7.0 | 0.00 | 0.01 | 0.01 | 58 | 1015.5 |
| 20260502163845 | 71 | 271 | 3.5 | 7.0 | 0.00 | 0.01 | 0.01 | 57 | 1015.6 |
| 20260502163346 | 71 | 318 | 2.6 | 7.0 | 0.00 | 0.01 | 0.01 | 60 | 1015.6 |
| 20260502162846 | 71 | 342 | 2.6 | 6.1 | 0.00 | 0.01 | 0.01 | 59 | 1015.8 |
| 20260502162455 | 71 | 330 | 3.5 | 7.0 | 0.00 | 0.01 | 0.01 | 59 | 1015.8 |
| 20260502160848 | 71 | 330 | 2.6 | 7.8 | 0.00 | 0.01 | 0.01 | 62 | 1015.9 |
| 20260502160420 | 71 | 339 | 3.5 | 7.0 | 0.00 | 0.01 | 0.01 | 59 | 1016.0 |
| 20260502151845 | 72 | 353 | 2.6 | 6.1 | 0.00 | 0.01 | 0.01 | 59 | 1016.4 |
| 20260502151344 | 72 | 241 | 2.6 | 7.8 | 0.00 | 0.01 | 0.01 | 59 | 1016.5 |
| 20260502150839 | 73 | 254 | 2.6 | 7.8 | 0.00 | 0.01 | 0.01 | 61 | 1016.6 |
| 20260502150340 | 73 | 224 | 4.3 | 9.6 | 0.00 | 0.01 | 0.01 | 61 | 1016.7 |
| 20260502130332 | 72 | 237 | 4.3 | 8.7 | 0.00 | 0.01 | 0.01 | 69 | 1018.0 |
| 20260502123332 | 71 | 208 | 6.1 | 12.2 | 0.00 | 0.01 | 0.01 | 72 | 1018.0 |
| 20260502122832 | 71 | 254 | 5.2 | 12.2 | 0.00 | 0.01 | 0.01 | 72 | 1018.2 |
| 20260502122331 | 71 | 230 | 5.2 | 9.6 | 0.00 | 0.01 | 0.01 | 71 | 1018.2 |
| 20260502121833 | 71 | 229 | 6.1 | 14.8 | 0.00 | 0.01 | 0.01 | 72 | 1018.3 |
| 20260502121333 | 71 | 215 | 5.2 | 14.8 | 0.00 | 0.01 | 0.01 | 70 | 1018.3 |
| 20260502120901 | 71 | 168 | 5.2 | 11.3 | 0.00 | 0.01 | 0.01 | 72 | 1018.4 |
| 20260502115832 | 71 | 238 | 5.2 | 12.2 | 0.00 | 0.01 | 0.01 | 73 | 1018.4 |
| 20260502115332 | 71 | 185 | 6.1 | 13.0 | 0.00 | 0.01 | 0.01 | 71 | 1018.5 |
| 20260502114831 | 71 | 227 | 4.3 | 13.0 | 0.00 | 0.01 | 0.01 | 70 | 1018.6 |
| 20260502114331 | 71 | 258 | 4.3 | 9.6 | 0.00 | 0.01 | 0.01 | 71 | 1018.7 |
| 20260502113833 | 70 | 224 | 5.2 | 12.2 | 0.00 | 0.01 | 0.01 | 72 | 1018.6 |
| 20260502113331 | 70 | 213 | 5.2 | 12.2 | 0.00 | 0.01 | 0.01 | 71 | 1018.7 |
| 20260502112832 | 70 | 164 | 6.1 | 10.4 | 0.00 | 0.01 | 0.01 | 73 | 1018.8 |
| 20260502112334 | 69 | 233 | 5.2 | 11.3 | 0.00 | 0.01 | 0.01 | 74 | 1018.8 |
| 20260502111937 | 69 | 260 | 6.1 | 14.8 | 0.00 | 0.01 | 0.01 | 74 | 1019.0 |
| 20260502110347 | 70 | 235 | 4.3 | 10.4 | 0.00 | 0.01 | 0.01 | 72 | 1018.9 |
| 20260502105831 | 70 | 202 | 4.3 | 9.6 | 0.00 | 0.01 | 0.01 | 73 | 1019.0 |
| 20260502105410 | 69 | 206 | 4.3 | 9.6 | 0.00 | 0.01 | 0.01 | 74 | 1019.0 |
| 20260502104330 | 69 | 239 | 4.3 | 8.7 | 0.00 | 0.01 | 0.01 | 73 | 1019.1 |
| 20260502103830 | 69 | 252 | 4.3 | 8.7 | 0.00 | 0.01 | 0.01 | 74 | 1019.1 |
| 20260502103336 | 68 | 237 | 4.3 | 12.2 | 0.00 | 0.01 | 0.01 | 75 | 1019.2 |
| 20260502102830 | 68 | 138 | 5.2 | 12.2 | 0.00 | 0.01 | 0.01 | 75 | 1019.3 |
| 20260502102408 | 68 | 179 | 5.2 | 10.4 | 0.00 | 0.01 | 0.01 | 75 | 1019.3 |
| 20260502101405 | 67 | 236 | 4.3 | 8.7 | 0.00 | 0.01 | 0.01 | 77 | 1019.3 |
| 20260502100410 | 68 | 176 | 4.3 | 8.7 | 0.00 | 0.01 | 0.01 | 76 | 1019.3 |
| 20260502091327 | 66 | 254 | 3.5 | 7.0 | 0.00 | 0.01 | 0.01 | 79 | 1019.5 |
| 20260502090825 | 66 | 225 | 3.5 | 7.8 | 0.00 | 0.01 | 0.01 | 80 | 1019.5 |
| 20260502090436 | 65 | 164 | 2.6 | 7.8 | 0.00 | 0.01 | 0.01 | 81 | 1019.6 |
| 20260502070849 | 57 | 96 | 0.9 | 2.6 | 0.01 | 0.01 | 0.01 | 85 | 1019.0 |
| 20260502065815 | 57 | 358 | 0.0 | 0.9 | 0.01 | 0.01 | 0.01 | 84 | 1019.2 |
| 20260502065315 | 57 | 358 | 0.0 | 0.9 | 0.01 | 0.01 | 0.01 | 84 | 1019.2 |
| 20260502064813 | 57 | 358 | 0.9 | 2.6 | 0.01 | 0.01 | 0.01 | 83 | 1019.2 |
| 20260502064313 | 57 | 358 | 0.9 | 2.6 | 0.01 | 0.01 | 0.01 | 83 | 1019.0 |
| 20260502063812 | 57 | 294 | 0.0 | 0.9 | 0.01 | 0.01 | 0.01 | 81 | 1019.0 |
| 20260502063315 | 57 | 294 | 0.9 | 2.6 | 0.01 | 0.01 | 0.01 | 80 | 1019.2 |
| 20260502062814 | 57 | 294 | 1.7 | 2.6 | 0.01 | 0.01 | 0.01 | 78 | 1019.2 |
| 20260502062315 | 58 | 228 | 0.9 | 2.6 | 0.01 | 0.01 | 0.01 | 77 | 1019.4 |
| 20260502061835 | 58 | 201 | 0.9 | 4.3 | 0.00 | 0.00 | 0.00 | 75 | 1019.5 |
| 20260502060809 | 57 | 212 | 2.6 | 5.2 | 0.00 | 0.00 | 0.00 | 74 | 1019.6 |
| 20260502060347 | 57 | 186 | 2.6 | 4.3 | 0.00 | 0.00 | 0.00 | 74 | 1019.6 |
| 20260502055309 | 56 | 181 | 1.7 | 5.2 | 0.00 | 0.00 | 0.00 | 76 | 1019.5 |
| 20260502054808 | 55 | 174 | 0.9 | 3.5 | 0.00 | 0.00 | 0.00 | 76 | 1019.5 |
| 20260502054310 | 55 | 199 | 0.0 | 2.6 | 0.00 | 0.00 | 0.00 | 76 | 1019.5 |
| 20260502053836 | 55 | 199 | 0.0 | 0.9 | 0.00 | 0.00 | 0.00 | 75 | 1019.3 |
| 20260502052808 | 55 | 199 | 0.0 | 1.7 | 0.00 | 0.00 | 0.00 | 73 | 1019.3 |
| 20260502052306 | 55 | 199 | 0.9 | 1.7 | 0.00 | 0.00 | 0.00 | 73 | 1019.3 |
| 20260502051806 | 55 | 200 | 0.9 | 2.6 | 0.00 | 0.00 | 0.00 | 73 | 1019.4 |
| 20260502051306 | 55 | 199 | 0.9 | 2.6 | 0.00 | 0.00 | 0.00 | 73 | 1019.3 |
| 20260502050811 | 55 | 199 | 0.9 | 2.6 | 0.00 | 0.00 | 0.00 | 73 | 1019.3 |
| 20260502050306 | 54 | 199 | 0.0 | 2.6 | 0.00 | 0.00 | 0.00 | 72 | 1019.2 |
| 20260502045806 | 54 | 199 | 0.9 | 2.6 | 0.00 | 0.00 | 0.00 | 72 | 1019.2 |
| 20260502045306 | 54 | 199 | 0.9 | 2.6 | 0.00 | 0.00 | 0.00 | 71 | 1019.2 |
| 20260502044807 | 54 | 205 | 0.9 | 2.6 | 0.00 | 0.00 | 0.00 | 71 | 1019.1 |
| 20260502044304 | 54 | 227 | 1.7 | 3.5 | 0.00 | 0.00 | 0.00 | 71 | 1019.2 |
| 20260502043807 | 54 | 199 | 0.9 | 3.5 | 0.00 | 0.00 | 0.00 | 72 | 1019.2 |
| 20260502043310 | 54 | 218 | 1.7 | 5.2 | 0.00 | 0.00 | 0.00 | 72 | 1019.2 |
| 20260502042807 | 54 | 189 | 2.6 | 5.2 | 0.00 | 0.00 | 0.00 | 73 | 1019.3 |
| 20260502042306 | 53 | 224 | 1.7 | 4.3 | 0.00 | 0.00 | 0.00 | 75 | 1019.3 |
| 20260502041805 | 53 | 212 | 0.9 | 4.3 | 0.00 | 0.00 | 0.00 | 75 | 1019.3 |
| 20260502041332 | 53 | 293 | 1.7 | 4.3 | 0.00 | 0.00 | 0.00 | 75 | 1019.0 |
| 20260502040337 | 53 | 163 | 1.7 | 2.6 | 0.00 | 0.00 | 0.00 | 75 | 1019.1 |
| 20260502035306 | 52 | 170 | 0.9 | 2.6 | 0.00 | 0.00 | 0.00 | 75 | 1019.2 |
| 20260502034805 | 52 | 173 | 0.9 | 2.6 | 0.00 | 0.00 | 0.00 | 75 | 1019.2 |
| 20260502034303 | 52 | 162 | 0.9 | 3.5 | 0.00 | 0.00 | 0.00 | 75 | 1019.1 |
| 20260502033805 | 52 | 160 | 0.9 | 3.5 | 0.00 | 0.00 | 0.00 | 75 | 1019.2 |
| 20260502033339 | 52 | 199 | 0.9 | 4.3 | 0.00 | 0.00 | 0.00 | 74 | 1019.3 |
| 20260502032309 | 52 | 116 | 1.7 | 4.3 | 0.00 | 0.00 | 0.00 | 74 | 1019.3 |
| 20260502031806 | 52 | 112 | 0.9 | 4.3 | 0.00 | 0.00 | 0.00 | 74 | 1019.2 |
| 20260502031303 | 52 | 172 | 0.9 | 1.7 | 0.00 | 0.00 | 0.00 | 74 | 1019.4 |
| 20260502030807 | 52 | 141 | 1.7 | 4.3 | 0.00 | 0.00 | 0.00 | 74 | 1019.3 |
| 20260502030344 | 52 | 160 | 1.7 | 4.3 | 0.00 | 0.00 | 0.00 | 75 | 1019.4 |
| 20260502025306 | 51 | 125 | 1.7 | 4.3 | 0.00 | 0.00 | 0.00 | 77 | 1019.5 |
| 20260502024802 | 51 | 176 | 0.9 | 2.6 | 0.00 | 0.00 | 0.00 | 77 | 1019.5 |
| 20260502024303 | 51 | 167 | 0.9 | 2.6 | 0.00 | 0.00 | 0.00 | 78 | 1019.5 |
| 20260502023802 | 51 | 85 | 1.7 | 3.5 | 0.00 | 0.00 | 0.00 | 78 | 1019.4 |
| 20260502023303 | 51 | 78 | 0.9 | 3.5 | 0.00 | 0.00 | 0.00 | 77 | 1019.4 |
| 20260502022801 | 51 | 245 | 0.9 | 3.5 | 0.00 | 0.00 | 0.00 | 78 | 1019.7 |
| 20260502022306 | 51 | 125 | 0.9 | 2.6 | 0.00 | 0.00 | 0.00 | 79 | 1019.5 |
| 20260502021903 | 51 | 141 | 0.9 | 1.7 | 0.00 | 0.00 | 0.00 | 78 | 1019.6 |
| 20260502020307 | 52 | 148 | 0.9 | 1.7 | 0.00 | 0.00 | 0.00 | 76 | 1019.7 |
| 20260502015933 | 52 | 148 | 0.9 | 1.7 | 0.00 | 0.00 | 0.00 | 76 | 1019.8 |
| 20260502013758 | 52 | 139 | 0.9 | 3.5 | 0.00 | 0.00 | 0.00 | 76 | 1019.8 |
| 20260502013258 | 52 | 133 | 1.7 | 3.5 | 0.00 | 0.00 | 0.00 | 76 | 1019.8 |
| 20260502012756 | 52 | 147 | 1.7 | 2.6 | 0.00 | 0.00 | 0.00 | 77 | 1019.9 |
| 20260502012256 | 52 | 129 | 0.9 | 3.5 | 0.00 | 0.00 | 0.00 | 77 | 1019.9 |
| 20260502011753 | 52 | 133 | 0.9 | 3.5 | 0.00 | 0.00 | 0.00 | 78 | 1019.9 |
| 20260502011254 | 52 | 160 | 1.7 | 3.5 | 0.00 | 0.00 | 0.00 | 78 | 1020.0 |
| 20260502010758 | 52 | 166 | 0.9 | 3.5 | 0.00 | 0.00 | 0.00 | 79 | 1020.0 |
| 20260502010254 | 52 | 131 | 0.9 | 1.7 | 0.00 | 0.00 | 0.00 | 79 | 1020.0 |
| 20260502005754 | 52 | 131 | 0.9 | 1.7 | 0.00 | 0.00 | 0.00 | 80 | 1020.1 |
| 20260502005253 | 52 | 131 | 0.9 | 2.6 | 0.00 | 0.00 | 0.00 | 80 | 1020.1 |
| 20260502004751 | 52 | 131 | 0.9 | 2.6 | 0.00 | 0.00 | 0.00 | 80 | 1020.1 |
| 20260502004406 | 52 | 108 | 0.9 | 2.6 | 0.00 | 0.00 | 0.00 | 79 | 1020.1 |
| 20260502002825 | 53 | 115 | 0.9 | 1.7 | 0.00 | 0.00 | 0.00 | 80 | 1020.3 |
| 20260502001749 | 53 | 116 | 0.9 | 1.7 | 0.00 | 0.00 | 0.00 | 79 | 1020.4 |
| 20260502001249 | 53 | 116 | 0.9 | 1.7 | 0.00 | 0.00 | 0.00 | 79 | 1020.4 |
| 20260502000814 | 53 | 116 | 0.9 | 1.7 | 0.00 | 0.00 | 0.00 | 78 | 1020.4 |
| 20260501235744 | 53 | 116 | 0.9 | 1.7 | 0.00 | 0.00 | 0.00 | 78 | 1020.5 |
| 20260501235244 | 53 | 116 | 0.9 | 1.7 | 0.00 | 0.00 | 0.00 | 78 | 1020.5 |
| 20260501234744 | 53 | 115 | 0.9 | 1.7 | 0.00 | 0.00 | 0.00 | 78 | 1020.6 |